Worland, WY

1:41 PM MST on February 26, 2017 (GMT -0700)
Worland Municipal

Weather History for KWRL - April, 2013

Change the Weather History Date:

Saturday, April 20, 2013

  Actual Average Record
Temperature  
Mean Temperature 47 °F 47 °F  
Max Temperature 58 °F 61 °F 87 °F (1980)
Min Temperature 36 °F 32 °F 15 °F (1966)
Degree Days  
Heating Degree Days 18 18  
Month to date heating degree days 503 416  
Since 1 July heating degree days 6958 7302  
Cooling Degree Days 0 0  
Month to date cooling degree days 0 0  
Year to date cooling degree days 0 0  
Moisture  
Dew Point 32 °F    
Average Humidity 60    
Maximum Humidity 85    
Minimum Humidity 35    
Precipitation  
Precipitation 0.01 in 0.03 in 0.67 in (2001)
Month to date precipitation 0.34 0.46  
Year to date precipitation 0.93 1.34  
Sea Level Pressure  
Sea Level Pressure 29.86 in    
Wind  
Wind Speed 5 mph (South)    
Max Wind Speed 21 mph    
Max Gust Speed 31 mph    
Visibility 10 miles    
Events Rain    
T = Trace of Precipitation, MM = Missing Value Source: NWS Daily Summary

Daily Weather History Graph

Daily Weather History Graph

Search for Another Location

Airport or City:

Trip Planner

Search our weather history database for the weather conditions in past years. The results will help you decide how hot, cold, wet, or windy it might be!

Date:

Astronomy

Apr. 20, 2013 Rise Set
Actual Time 6:19 AM MDT 8:02 PM MDT
Civil Twilight 5:49 AM MDT 8:32 PM MDT
Nautical Twilight 5:12 AM MDT 9:10 PM MDT
Astronomical Twilight 4:32 AM MDT 9:50 PM MDT
Moon 2:38 PM MDT (4/20) 3:22 AM MDT (4/20)
Length of Visible Light 14h 43m
Length of Day
13h 42m
Waxing Gibbous, 71% of the Moon is Illuminated
Apr 20
Waxing Gibbous
Apr 25
Full
May 2
Last Quarter
May 9
New
May 17
First Quarter

Hourly Weather History & Observations

Time (MDT) Temp. Windchill Dew Point Humidity Pressure Visibility Wind Dir Wind Speed Gust Speed Precip Events Conditions
12:53 AM 45.0 °F 43.5 °F 30.0 °F 56% 29.80 in 10.0 mi WSW 3.5 mph - N/A   Overcast
1:53 AM 44.1 °F 40.8 °F 30.9 °F 60% 29.80 in 10.0 mi South 5.8 mph - N/A   Overcast
2:53 AM 44.1 °F 39.5 °F 32.0 °F 63% 29.80 in 10.0 mi ESE 8.1 mph - N/A   Overcast
3:53 AM 43.0 °F - 34.0 °F 71% 29.81 in 10.0 mi Calm Calm - 0.00 in Rain Light Rain
4:53 AM 39.0 °F 34.0 °F 33.1 °F 79% 29.84 in 10.0 mi ESE 6.9 mph - 0.00 in   Overcast
5:53 AM 37.9 °F 33.5 °F 33.1 °F 83% 29.86 in 10.0 mi SW 5.8 mph - N/A   Mostly Cloudy
6:53 AM 37.0 °F 32.4 °F 32.0 °F 82% 29.87 in 10.0 mi SSW 5.8 mph - N/A   Clear
7:53 AM 44.1 °F 40.8 °F 34.0 °F 68% 29.87 in 10.0 mi SW 5.8 mph - N/A   Overcast
8:53 AM 48.0 °F - 34.0 °F 58% 29.87 in 10.0 mi SW 3.5 mph - N/A   Mostly Cloudy
9:53 AM 51.1 °F - 28.9 °F 43% 29.87 in 10.0 mi West 3.5 mph - N/A   Clear
10:53 AM 53.1 °F - 27.0 °F 37% 29.86 in 10.0 mi Calm Calm - N/A   Clear
11:53 AM 54.0 °F - 27.0 °F 35% 29.86 in 10.0 mi Variable 4.6 mph - N/A   Clear
12:53 PM 55.9 °F - 28.0 °F 34% 29.84 in 10.0 mi East 4.6 mph - N/A   Clear
1:53 PM 51.1 °F - 36.0 °F 56% 29.86 in 10.0 mi NW 19.6 mph 25.3 mph 0.00 in Rain Light Rain
2:03 PM 50.0 °F - 37.4 °F 62% 29.86 in 10.0 mi NNE 13.8 mph - 0.00 in Rain Light Rain
2:53 PM 53.1 °F - 33.1 °F 47% 29.83 in 10.0 mi East 10.4 mph - 0.00 in   Clear
3:53 PM 55.0 °F - 30.0 °F 38% 29.83 in 10.0 mi SE 5.8 mph - N/A   Mostly Cloudy
4:53 PM 55.9 °F - 30.0 °F 37% 29.84 in 10.0 mi East 8.1 mph - N/A   Scattered Clouds
5:53 PM 55.0 °F - 28.9 °F 37% 29.84 in 10.0 mi Calm Calm - N/A   Clear
6:53 PM 53.1 °F - 33.1 °F 47% 29.86 in 10.0 mi SW 8.1 mph - N/A   Partly Cloudy
7:53 PM 51.1 °F - 33.1 °F 50% 29.87 in 10.0 mi West 5.8 mph - N/A   Mostly Cloudy
8:53 PM 43.0 °F 38.8 °F 36.0 °F 76% 29.90 in 10.0 mi SE 6.9 mph - 0.01 in   Partly Cloudy
9:53 PM 41.0 °F - 34.0 °F 76% 29.93 in 10.0 mi Calm Calm - N/A   Clear
10:53 PM 39.9 °F - 36.0 °F 86% 29.93 in 10.0 mi Calm Calm - N/A   Mostly Cloudy
11:53 PM 39.0 °F - 35.1 °F 86% 29.95 in 10.0 mi Calm Calm - N/A   Overcast